Regional Weather Roundup
Issued by NWS Grand Forks, ND

Home | Current Version | Previous Version | Graphics & Text | Print | Product List | Glossary Off
Versions: 1 2 3 4 5 6 7 8 9 10 11 12 13 14 15 16 17 18 19 20 21 22 23 24 25 26 27 28 29 30 31 32 33 34 35 36 37 38 39 40 41 42 43 44 45 46 47 48 49 50

000
ASUS43 KFGF 240510
RWRFGF
PRAIRIE TO PINES  WEATHER ROUNDUP
NATIONAL WEATHER SERVICE EASTERN NORTH DAKOTA/GRAND FORKS ND
1200 AM CDT THU JUL 24 2014

 **SATELLITE DATA USED TO AUGMENT SKY COVER AT AUTOMATED STATIONS**
 *****  WEATHER ACROSS EASTERN NORTH DAKOTA  *****

CITY           SKY/WX    TMP DP  RH WIND       PRES   REMARKS
GRAND FORKS    PTCLDY    65  57  75 E5        30.16F
GRAND FRKS AFB PTCLDY    62  59  90 CALM      30.17F
GRAND FRKS NWS   N/A     63 N/A N/A NE2         N/A
DEVILS LAKE    CLEAR     64  57  77 E12       30.15S
FARGO          CLEAR     64  59  83 E5        30.16F
WAHPETON ARPT  CLEAR     63  57  82 E3        30.17S
$$

 ***** WEATHER ACROSS CENTRAL AND WESTERN NORTH DAKOTA  *****

CITY           SKY/WX    TMP DP  RH WIND       PRES   REMARKS
BISMARCK       MOCLDY    68  59  73 SE13      30.10S
MINOT          PTCLDY    65  62  90 E9        30.08F
JAMESTOWN      CLEAR     65  60  84 E9        30.15F
MINOT AFB      PTCLDY    65  64  99 E12       30.07F
GARRISON         N/A     68  63  84 SE13      30.07F
WILLISTON      PTCLDY    74  61  63 E12       29.99S
DICKINSON      CLEAR     68  57  68 SE16      30.02F
HETTINGER      CLEAR     69  55  60 E14G24    30.05F
$$

 *****  OTHER AIRPORT OBSERVATIONS IN OUR AREA  *****

CITY           SKY/WX    TMP DP  RH WIND       PRES   REMARKS
WALHALLA         N/A     55  55 100 CALM        N/A
GRAFTON AIRPOR FAIR      57  55  94 NE6       30.16F
VALLEY CITY AR FAIR      64  64 100 E6        30.18S
CANDO          FAIR      61  57  88 SE8       30.16S
CAVALIER APRT  FAIR      57  55  94 CALM      30.17F
GWINNER          N/A     64  63  94 E6        30.17F
SHEYENNE NWR     N/A     61  59  92 E5        29.95
ROLLA          CLOUDY    59  59 100 SE9       30.17F
 ***** THE ABOVE OBSERVATIONS ARE NON NWS ARE NOT QUALITY
       CONTROLLED AND MAY MIS-REPORT RAIN FOR SNOW...
$$

  *****  WEATHER ACROSS NORTHERN MINNESOTA  *****

CITY           SKY/WX    TMP DP  RH WIND       PRES   REMARKS
FLAG ISLAND    CLEAR     66  46  48 E5        30.17S
WARROAD        NOT AVBL
ROSEAU         CLEAR     57  52  82 CALM      30.18F
HALLOCK        PTCLDY    59  55  88 CALM      30.17F
THF RVR FALLS  CLEAR     61  55  82 N3        30.18F
BAUDETTE       PTCLDY    57  55  93 CALM      30.19F
WASKISH        CLEAR     54  52  94 CALM      30.19S
CROOKSTON      PTCLDY    61  57  88 CALM      30.18S
$$
  *****  WEATHER ACROSS CENTRAL AND WEST MINNESOTA  *****

CITY           SKY/WX    TMP DP  RH WIND       PRES   REMARKS
FOSSTON        CLEAR     55  50  82 CALM      30.19F
BEMIDJI        CLEAR     56  53  89 CALM      30.18F
PARK RAPIDS    CLEAR     61  56  83 CALM      30.19S
ELBOW LAKE     FAIR      66  59  78 E3        30.19R
WADENA         CLEAR     55  54  94 CALM      30.18F
DETROIT LAKES  CLEAR     63  59  88 CALM      30.20R
MOORHEAD       CLEAR     66  63  88 E3        30.17F
FERGUS FALLS   CLEAR     64  57  77 E3        30.18S
MORRIS MN      CLEAR     61  57  88 CALM      30.17S
STAPLES        CLEAR     57  55  94 CALM      30.19S
$$
  *****  WEATHER ELSEWHERE ACROSS MINNESOTA  *****

CITY           SKY/WX    TMP DP  RH WIND       PRES   REMARKS
DULUTH         PTCLDY    59  51  75 E5        30.19R
INTRNTL FALLS  CLEAR     50  50 100 CALM      30.19S
ELY            CLEAR     50  48  93 CALM      30.21R
CLOQUET        CLEAR     57  52  82 CALM      30.19R
WHEATON        CLEAR     61  57  88 SE3       30.19S
BRAINERD       CLEAR     56  55  97 CALM      30.18S
HIBBING        CLEAR     51  49  92 CALM      30.19S
ALEXANDRIA     CLEAR     64  56  75 CALM      30.20R
SAINT CLOUD    CLEAR     59  55  87 CALM      30.17S
MINNEAPOLIS    CLEAR     69  55  60 N3        30.16R
$$

  *****  WEATHER ACROSS SOUTH DAKOTA  *****

CITY           SKY/WX    TMP DP  RH WIND       PRES   REMARKS
SIOUX FALLS    CLEAR     65  57  75 E7        30.18R
BROOKINGS      NOT AVBL
WATERTOWN      CLEAR     65  56  72 SE6       30.18S
HURON          CLEAR     68  55  63 SE8       30.14S
SISSETON         N/A     62  60  93 CALM      30.17R
ABERDEEN       CLEAR     62  57  83 SE6       30.15S
MITCHELL       CLEAR     67  59  75 SE8       30.15F
PIERRE         CLEAR     71  57  61 SE15      30.08S
MOBRIDGE       CLEAR     69  57  65 SE15      30.08S
RAPID CITY     PTCLDY    69  63  81 S8        30.03F
$$

  *****  SOME WEATHER IN NEARBY STATES *****

CITY           SKY/WX    TMP DP  RH WIND       PRES   REMARKS
GLASGOW MT     PTCLDY    81  62  52 E18       29.86F
GREAT FALLS MT MOCLDY    66  56  70 CALM      29.88F
CHEYENNE WY    LGT RAIN  74  47  38 S14       30.22F
SCOTTSBLUFF NE CLEAR     74  65  73 E10       30.08F
OMAHA NE       CLEAR     74  62  66 SE6       30.17S
DES MOINES IA  CLEAR     71  58  63 S3        30.16S
DAVENPORT IA   MOCLDY    62  58  86 CALM      30.16R
CHICAGO IL     CLEAR     60  49  66 N6        30.15R
EAU CLAIRE WI  CLEAR     60  57  89 NE5       30.16S
LA CROSSE WI   CLEAR     67  61  81 SE3       30.14S
$$

  *****  SOME NATIONAL WEATHER *****

CITY           SKY/WX    TMP DP  RH WIND       PRES   REMARKS
LA GUARDIA NY  CLOUDY    77  68  73 NW8       29.78F
RALEIGH NC     PTCLDY    76  71  85 SW9       29.93S
ATLANTA GA     PTCLDY    76  71  85 W3        30.02S
NEW ORLEANS LA MOCLDY    77  73  87 SE5       29.99F
OKLAHOMA CITY  CLOUDY    74  66  76 SE6       30.11F
ALBUQUERQUE NM PTCLDY    78  48  34 S8        30.31R
SALT LAKE CITY MOCLDY    90  42  18 S20       29.94S
LOS ANGELES CA CLEAR     69  62  78 SW7       29.89R
BOISE ID       CLEAR     81  39  22 NW9       29.92S
SEATTLE WA     MOCLDY    59  51  75 S7        30.09R
$$

*** WEATHER ACROSS MANITOBA...SASKATCHEWAN AND ONTARIO ***
                ***ONTARIO***

CITY           SKY/WX    TMP DP  RH WIND       PRES   REMARKS
GERALDTON      MOCLDY    59  50  72 W7        30.09F
THUNDER BAY    CLEAR     54  52  94 SW5       30.16S
SIOUX LOOKOUT  CLEAR     48  48 100 S2        30.17S
TORONTO        CLEAR     61  52  72 N12       30.03S
BIG TROUT LK   CLOUDY    57  55  94 CALM      30.02S
PICKLE LAKE    NOT AVBL
DRYDEN         CLEAR     59  48  67 W7        30.19R
KENORA         CLEAR     64  48  55 W5        30.20F
$$
                *** MANITOBA***

CITY           SKY/WX    TMP DP  RH WIND       PRES   REMARKS
BRANDON        PTCLDY    57  54  88 E6        30.15F
DAUPHIN        CLEAR     55  50  82 SE5       30.13F
ISLAND LAKE    PTCLDY    63  54  72 W3        30.07F
PILOT MOUND      N/A     55  54  94 E6          N/A
THE PAS        PTCLDY    59  57  94 S3        30.08F
THOMPSON       PTCLDY    55  52  88 CALM      30.03F
WINNIPEG       MOCLDY    55  50  82 CALM      30.17F
LYNN LAKE      CLEAR     61  48  63 SW6       30.05S
CHURCHILL      PTCLDY    59  54  82 S6        29.98F
GILLAM         PTCLDY    59  55  88 E6        30.00F SMOKE
$$
                ***SASKATCHEWAN***

CITY           SKY/WX    TMP DP  RH WIND       PRES   REMARKS
ESTEVAN        MOCLDY    64  61  88 E13       30.05F
KINDERSLEY     MOCLDY    66  61  82 E14G21    29.89F
LLOYDMINSTER   MOCLDY    64  61  88 SE15G21   29.89F
PRINCE ALBERT  CLOUDY    66  59  77 SE8       30.01F
REGINA         MOCLDY    68  63  83 SE16      30.02S
YORKTON        PTCLDY    64  55  72 SE8       30.09F
N. BATTLEFORD  LGT RAIN  66  61  82 E15G21    29.95F
LA RONGE       MOCLDY    70  55  60 S9        30.01F
SASKATOON      MOCLDY    68  61  77 SE16G24   29.98F
SWIFT CURRENT  CLEAR     70  64  83 SE15G22   29.90F
$$
NOTE: THESE ARE AUTOMATED STATIONS WITH LIMITED QUALITY CONTROL
      "FAIR" INDICATES FEW OR NO CLOUDS BELOW 12,000 FEET WITH NO
      SIGNIFICANT WEATHER AND/OR OBSTRUCTIONS TO VISIBILITY.
      SKY/WX - SKY CONDITION AND SIGNIFICANT WEATHER.
      TMP - AIR TEMPERATURE.    DP   - DEWPOINT TEMPERATURE.
      RH  - RELATIVE HUMIDITY.  PRES - PRESSURE.
      HX  - HEAT INDEX.         WCI  - WIND CHILL INDEX.
$



USA.gov is the U.S. government's official web portal to all federal, state and local government web resources and services.